[[{"header":{"parameterUnit":"m.s-1","parameterCategory":1,"la1":30.2991,"la2":30.254,"lo1":-89.0895,"lo2":-89.0444,"dx":0.0017,"dy":0.0017,"nx":28,"ny":28,"refTime":"2022-12-24T09:00:00:Z","depth":0,"parameterNumber":2,"parameterNumberName":"U-component_of_WINDS"},"data":[0,0,0,0,0,0,0,0,0,0,0,0,0,0,0,0,0,0,0,0,0,0,0,0,0,0,0,0,0,0,0,0,0,0,0,0,0,0,0,0,0,0,0,0,0,0,0,0,0,0,0,0,0,0,0,0,0,0,0.4634,0.4633,0,0.4575,0.4574,0.4574,0.457,0.4571,0.4572,0.4572,0.4509,0.4507,0.4505,0,0,0,0,0,0,0,0,0,0,0,0,0,0.4741,0.4739,0.4634,0.4633,0.4632,0.4575,0.4574,0.4574,0.457,0.4571,0.4572,0.4573,0.451,0.4507,0.4505,0,0,0,0,0,0,0,0,0,0,0,0,0,0.469,0.4739,0.4634,0.4624,0.4622,0.4575,0.4574,0.4573,0.457,0.4571,0.4572,0.4573,0.4511,0.4508,0.4504,0.4462,0,0,0.4494,0.4492,0,0,0,0,0,0,0,0,0.4693,0.4686,0.4626,0.4624,0.4623,0.4581,0.4589,0.4536,0.457,0.459,0.4572,0.4574,0.4532,0.4527,0.4514,0.446,0.4457,0.4493,0.4491,0.449,0.4489,0,0,0,0,0,0,0,0.4696,0.4688,0.461,0.4625,0.4623,0.4622,0.4616,0.4579,0.4556,0.4588,0.4588,0.4581,0.4532,0.4517,0.4512,0.4456,0.4493,0.449,0.4488,0.4487,0.4365,0.4364,0,0,0,0,0,0,0.4702,0.4691,0.4612,0.4609,0.4661,0.4619,0.4612,0.4593,0.4556,0.4552,0.458,0.4581,0.4523,0.4516,0.451,0.4458,0.449,0.4487,0.4485,0.4366,0.4365,0.4364,0,0,0,0,0,0,0.4704,0.4695,0.4615,0.465,0.464,0.4616,0.4595,0.4592,0.4577,0.455,0.4546,0.457,0.4523,0.4515,0.4475,0.4456,0.4485,0.4482,0.4368,0.4366,0.4364,0.4355,0,0,0,0,0,0,0.4707,0.4696,0.468,0.465,0.4638,0.4581,0.4594,0.459,0.4572,0.4572,0.4539,0.4535,0.4523,0.448,0.4471,0.4452,0.4479,0.4369,0.4367,0.4365,0.4357,0.4353,0.435,0,0,0,0,0,0.4711,0.4679,0.4679,0.467,0.4617,0.458,0.4573,0.4561,0.457,0.4554,0.4537,0.4536,0.446,0.4476,0.4466,0.4445,0.437,0.4368,0.4365,0.4358,0.4354,0.435,0,0,0,0,0,0,0.4706,0.4675,0.4674,0.4631,0.4608,0.4579,0.4558,0.4556,0.4529,0.4531,0.4516,0.4509,0.4469,0.4454,0.4471,0.4404,0.4416,0.4412,0.4415,0.441,0.4407,0.4411,0.4476,0,0,0,0,0,0.47,0.4673,0.4647,0.4611,0.46,0.4581,0.4564,0.4557,0.4532,0.4522,0.4502,0.4477,0.4448,0.4428,0.44,0.4356,0.4348,0.4337,0.4334,0.4331,0.4326,0.4302,0.4297,0.4355,0.4355,0.4355,0,0,0.4687,0.4667,0.465,0.461,0.4591,0.4562,0.4573,0.4542,0.452,0.4517,0.4478,0.4463,0.4434,0.4392,0.4372,0.4377,0.4309,0.4328,0.4326,0.4323,0.4299,0.4293,0.4288,0.4353,0.4354,0.4354,0,0,0.4648,0.4631,0.4599,0.4581,0.4553,0.4541,0.4534,0.4505,0.4495,0.4456,0.4453,0.4428,0.4377,0.4357,0.434,0.4297,0.4295,0.4288,0.4269,0.4246,0.4241,0.4237,0.4221,0.4215,0.4284,0.4284,0.4284,0,0.4635,0.4592,0.4583,0.4552,0.4535,0.4533,0.45,0.4483,0.4447,0.4434,0.4442,0.4379,0.436,0.4313,0.4303,0.429,0.428,0.429,0.4243,0.4239,0.4235,0.4219,0.4213,0.4283,0.4283,0.4283,0.4284,0,0.4577,0.4548,0.4526,0.4493,0.4473,0.4441,0.4427,0.4408,0.4404,0.4391,0.4351,0.4329,0.4296,0.4285,0.4279,0.4237,0.4241,0.4246,0.4258,0.4228,0.4213,0.4207,0.4282,0.4282,0.4283,0.4283,0,0,0.4531,0.4495,0.4486,0.4471,0.4442,0.4418,0.4388,0.4357,0.4341,0.4317,0.429,0.4249,0.4253,0.4234,0.4227,0.4207,0.4173,0.4214,0.4213,0.4206,0.4125,0.412,0.4113,0.4173,0.4172,0.4171,0.4127,0,0.4488,0.4433,0.4425,0.4376,0.4349,0.4348,0.4321,0.43,0.4288,0.4263,0.4249,0.422,0.4229,0.4218,0.4198,0.4182,0.4156,0.4185,0.4147,0.4146,0.4152,0.4106,0.41,0.4059,0.4121,0.412,0.4119,0,0.4429,0.4405,0.4355,0.433,0.4318,0.4294,0.4265,0.4242,0.4218,0.4211,0.4191,0.4187,0.4155,0.417,0.4125,0.4145,0.4129,0.412,0.4118,0.4112,0.4129,0.4097,0.4046,0.4039,0.411,0.4111,0.4111,0,0.4399,0.4354,0.4318,0.4306,0.4276,0.4259,0.4246,0.4223,0.4206,0.4181,0.4169,0.4141,0.4125,0.4103,0.4091,0.4104,0.4047,0.4062,0.404,0.404,0.4025,0.4026,0.397,0.4019,0.4019,0.4019,0.4019,0,0.4351,0.4319,0.4304,0.4282,0.4247,0.4238,0.4204,0.4191,0.4171,0.4146,0.4144,0.412,0.4107,0.4082,0.4073,0.4037,0.403,0.4023,0.402,0.4022,0.4022,0.401,0.4011,0.4017,0.4018,0.4018,0.4018,0,0.431,0.4299,0.4259,0.4235,0.4229,0.4204,0.4183,0.4161,0.4151,0.4119,0.4111,0.4094,0.4064,0.4051,0.4014,0.4008,0.3966,0.3967,0.3974,0.3973,0.3951,0.3953,0.3883,0.3873,0.393,0.3929,0.3929,0,0.4279,0.4255,0.4229,0.4213,0.4199,0.4173,0.4155,0.4146,0.4128,0.4101,0.4082,0.4053,0.4028,0.398,0.3964,0.3936,0.3935,0.3912,0.393,0.3933,0.3933,0.3934,0.3931,0.3908,0.3908,0.3907,0.3907,0,0.4224,0.422,0.4196,0.4169,0.4149,0.4128,0.4107,0.4093,0.4081,0.4061,0.4031,0.4012,0.3976,0.3946,0.3917,0.3903,0.3902,0.3902,0.3895,0.3895,0.39,0.3896,0.3964,0.3903,0.3903,0.3903,0.3904,0.3904,0.4186,0.4165,0.4144,0.4117,0.4101,0.4082,0.406,0.4048,0.4023,0.3993,0.3989,0.3957,0.3935,0.3897,0.3882,0.3857,0.3862,0.3852,0.3849,0.3847,0.3845,0.3906,0.3852,0.3852,0.3852,0.3852,0.3852,0,0.413,0.4118,0.4093,0.4064,0.4043,0.4047,0.4025,0.4006,0.3978,0.3958,0.3935,0.3901,0.3873,0.3856,0.3828,0.3811,0.381,0.3803,0.3803,0.38,0.3842,0.385,0.3805,0.3805,0.3805,0.3805,0.3805,0.3805,0.4099,0.4063,0.4057,0.4014,0.4001,0.397,0.3957,0.394,0.3924,0.3886,0.3864,0.3853,0.3834,0.3805,0.378,0.3776,0.3764,0.3758,0.3753,0.3792,0.3797,0.3802,0.3809,0.3756,0.3756,0.3713,0.3713,0.3713]},{"header":{"parameterUnit":"m.s-1","parameterCategory":1,"la1":30.2991,"la2":30.254,"lo1":-89.0895,"lo2":-89.0444,"dx":0.0017,"dy":0.0017,"nx":28,"ny":28,"refTime":"2022-12-24T09:00:00:Z","depth":0,"parameterNumber":3,"parameterNumberName":"V-component_of_WINDS"},"data":[0,0,0,0,0,0,0,0,0,0,0,0,0,0,0,0,0,0,0,0,0,0,0,0,0,0,0,0,0,0,0,0,0,0,0,0,0,0,0,0,0,0,0,0,0,0,0,0,0,0,0,0,0,0,0,0,0,0,-7.0422,-7.0424,0,-7.0633,-7.0636,-7.0638,-7.0567,-7.0562,-7.0557,-7.0553,-7.0764,-7.0774,-7.0784,0,0,0,0,0,0,0,0,0,0,0,0,0,-6.995,-6.9959,-7.0421,-7.0424,-7.0427,-7.0633,-7.0636,-7.0639,-7.0567,-7.0562,-7.0556,-7.0551,-7.0761,-7.0773,-7.0785,0,0,0,0,0,0,0,0,0,0,0,0,0,-7.0157,-6.9962,-7.0421,-7.0416,-7.0418,-7.0632,-7.0636,-7.0639,-7.0569,-7.0562,-7.0555,-7.0548,-7.0757,-7.0772,-7.0786,-7.1017,0,0,-7.0832,-7.0838,0,0,0,0,0,0,0,0,-7.0145,-7.0175,-7.0414,-7.0417,-7.0419,-7.0567,-7.0547,-7.0766,-7.057,-7.0511,-7.0553,-7.0545,-7.0704,-7.0723,-7.0777,-7.1026,-7.1036,-7.0833,-7.0842,-7.0849,-7.0853,0,0,0,0,0,0,0,-7.0131,-7.0165,-7.0505,-7.0418,-7.0421,-7.0401,-7.0423,-7.0588,-7.0643,-7.0516,-7.0511,-7.0537,-7.0704,-7.0763,-7.0782,-7.1039,-7.0833,-7.0846,-7.0855,-7.0861,-7.1485,-7.1493,0,0,0,0,0,0,-7.0116,-7.0154,-7.0498,-7.0511,-7.0263,-7.0416,-7.044,-7.0526,-7.0642,-7.0653,-7.0543,-7.0533,-7.0741,-7.0764,-7.0789,-7.1066,-7.0849,-7.0862,-7.0871,-7.1478,-7.1487,-7.1495,0,0,0,0,0,0,-7.0106,-7.0148,-7.049,-7.0331,-7.0373,-7.0431,-7.0528,-7.0534,-7.0593,-7.0662,-7.0671,-7.0594,-7.0737,-7.0768,-7.0961,-7.1072,-7.0869,-7.0883,-7.1469,-7.1481,-7.1491,-7.1621,0,0,0,0,0,0,-7.0093,-7.0145,-7.0234,-7.0334,-7.0382,-7.066,-7.0535,-7.0543,-7.062,-7.0609,-7.0713,-7.0723,-7.0734,-7.0939,-7.0975,-7.1089,-7.0894,-7.1459,-7.1474,-7.1488,-7.1607,-7.1636,-7.166,0,0,0,0,0,-7.0077,-7.0261,-7.0239,-7.0281,-7.0496,-7.0667,-7.0694,-7.0704,-7.0629,-7.0719,-7.0763,-7.072,-7.1054,-7.0959,-7.1,-7.1119,-7.1452,-7.147,-7.1487,-7.1595,-7.163,-7.1659,0,0,0,0,0,0,-7.0172,-7.0274,-7.0251,-7.0474,-7.0563,-7.0655,-7.0768,-7.0741,-7.0851,-7.0836,-7.0842,-7.0866,-7.1064,-7.111,-7.1003,-7.1347,-7.1241,-7.1268,-7.131,-7.1344,-7.137,-7.1354,-7.0907,0,0,0,0,0,-7.0219,-7.0351,-7.0433,-7.0622,-7.0667,-7.071,-7.0785,-7.0785,-7.0876,-7.0913,-7.0971,-7.106,-7.1184,-7.1266,-7.1385,-7.1613,-7.1634,-7.1715,-7.1741,-7.1762,-7.1785,-7.1908,-7.1945,-7.1552,-7.1552,-7.1551,0,0,-7.0318,-7.039,-7.0473,-7.0643,-7.0711,-7.0846,-7.0742,-7.089,-7.0989,-7.0935,-7.1121,-7.1166,-7.1265,-7.1477,-7.1572,-7.1521,-7.1898,-7.1784,-7.1801,-7.1812,-7.193,-7.1967,-7.2,-7.1564,-7.1562,-7.156,0,0,-7.0566,-7.0635,-7.0799,-7.087,-7.0976,-7.1003,-7.1042,-7.1139,-7.1168,-7.1355,-7.1316,-7.1433,-7.1648,-7.172,-7.1785,-7.206,-7.2024,-7.2098,-7.2236,-7.2356,-7.2387,-7.2414,-7.2511,-7.2546,-7.212,-7.212,-7.212,0,-7.0675,-7.0879,-7.0887,-7.1038,-7.1113,-7.1071,-7.1237,-7.1304,-7.1443,-7.1495,-7.1436,-7.1704,-7.1768,-7.1995,-7.2062,-7.2116,-7.216,-7.2086,-7.2382,-7.2409,-7.2435,-7.2528,-7.2565,-7.2128,-7.2128,-7.2127,-7.2126,0,-7.1007,-7.1149,-7.1268,-7.1405,-7.1493,-7.1651,-7.1681,-7.1769,-7.1761,-7.1794,-7.1983,-7.2058,-7.2191,-7.2244,-7.2237,-7.247,-7.2435,-7.2379,-7.2273,-7.2481,-7.2568,-7.2604,-7.214,-7.2137,-7.2135,-7.2133,0,0,-7.1323,-7.1461,-7.1505,-7.1566,-7.1679,-7.1788,-7.1942,-7.2073,-7.2148,-7.2244,-7.2373,-7.2556,-7.2504,-7.2578,-7.2578,-7.2683,-7.2895,-7.2614,-7.2616,-7.2663,-7.3155,-7.3197,-7.3238,-7.2871,-7.2878,-7.2884,-7.3147,0,-7.1581,-7.1855,-7.1866,-7.2115,-7.2245,-7.2206,-7.234,-7.2423,-7.2457,-7.2571,-7.2607,-7.2736,-7.2659,-7.2703,-7.2805,-7.2848,-7.2994,-7.2829,-7.299,-7.2995,-7.2967,-7.3284,-7.3329,-7.3574,-7.3181,-7.3187,-7.3191,0,-7.1919,-7.2027,-7.229,-7.2383,-7.2438,-7.2559,-7.268,-7.2789,-7.2881,-7.2898,-7.298,-7.2965,-7.312,-7.3009,-7.3222,-7.311,-7.3176,-7.3206,-7.3216,-7.3232,-7.3106,-7.3308,-7.3652,-7.3689,-7.3245,-7.3241,-7.3237,0,-7.2123,-7.2334,-7.2518,-7.2572,-7.2685,-7.2771,-7.2822,-7.2907,-7.2985,-7.3089,-7.3139,-7.326,-7.3326,-7.3418,-7.3435,-7.3352,-7.3649,-7.3539,-7.3666,-7.3666,-7.3731,-7.3727,-7.4091,-7.3774,-7.3773,-7.3772,-7.3772,0,-7.241,-7.2572,-7.2612,-7.2725,-7.2904,-7.2914,-7.3091,-7.3135,-7.3211,-7.3331,-7.3303,-7.3416,-7.3431,-7.3546,-7.356,-7.3734,-7.3764,-7.3781,-7.3783,-7.3784,-7.3782,-7.3828,-7.3811,-7.3782,-7.378,-7.3778,-7.3776,0,-7.2669,-7.2702,-7.29,-7.2991,-7.3018,-7.3146,-7.3223,-7.3331,-7.3361,-7.3513,-7.3549,-7.3597,-7.3731,-7.3757,-7.3915,-7.3924,-7.4132,-7.4116,-7.4102,-7.41,-7.4226,-7.4214,-7.4633,-7.4688,-7.4334,-7.4338,-7.434,0,-7.2851,-7.2974,-7.3079,-7.3158,-7.3214,-7.3341,-7.3421,-7.3434,-7.3518,-7.3631,-7.3725,-7.3856,-7.3963,-7.4179,-7.4227,-7.4347,-7.4334,-7.4472,-7.4352,-7.4349,-7.4336,-7.4329,-7.4341,-7.4496,-7.4499,-7.4503,-7.4505,0,-7.3169,-7.3179,-7.3296,-7.3419,-7.3515,-7.3612,-7.3703,-7.3769,-7.3794,-7.3889,-7.4027,-7.411,-7.4272,-7.4403,-7.4523,-7.4572,-7.4543,-7.4543,-7.4578,-7.4581,-7.4568,-7.4577,-7.4165,-7.4533,-7.453,-7.4528,-7.4527,-7.4526,-7.3395,-7.3503,-7.3594,-7.3724,-7.3795,-7.3881,-7.3986,-7.403,-7.4147,-7.4281,-7.4281,-7.4432,-7.4518,-7.4677,-7.4734,-7.4851,-7.4807,-7.4859,-7.4872,-7.4885,-7.4897,-7.4549,-7.4872,-7.4872,-7.4871,-7.487,-7.487,0,-7.3712,-7.3768,-7.3888,-7.4018,-7.4121,-7.4085,-7.4184,-7.4272,-7.4406,-7.449,-7.4595,-7.4753,-7.4879,-7.4937,-7.506,-7.5143,-7.5132,-7.5175,-7.5169,-7.5181,-7.4929,-7.4886,-7.5181,-7.5181,-7.5181,-7.5181,-7.5181,-7.5181,-7.3889,-7.407,-7.4091,-7.4305,-7.4359,-7.4509,-7.4568,-7.4647,-7.4714,-7.4893,-7.4998,-7.5035,-7.5108,-7.5236,-7.535,-7.5363,-7.541,-7.5459,-7.5466,-7.523,-7.5198,-7.5168,-7.5128,-7.5469,-7.5469,-7.5708,-7.571,-7.5712]}]]